STARLINK-30112, 56306

Orbit data source: Space-Track

STARLINK-30112, 56306 is a payload satellite owned by SpaceX/Seattle (US) in LEO that was launched on Wed, 19 Apr 2023 UTC via an FALCON 9 launch vehicle from the Air Force Eastern Test Range (AFETR). Payload-class satellites include a variety of spacecraft equipped with specific instruments for various scientific and technological missions. These include communications satellites like Starlink; space stations such as the ISS; scientific satellites like the Hubble; Earth observation satellites from companies like Planet Labs, Umbra, and HawkEye 360; GPS; miniature CubeSats for education and research; and military/defense satellites.

Loading next visibility...
Identifier
56306, 2023-056W
Orbit
LEO
Country
Flag of USUS
Related business
Manufacturer
SpaceX/Seattle
Mission
Operational Commercial Communications
Bus & Motor
STARLINK V2M, Unknown motor
Mass
730 kg wet, ~700 kg dry
Launch date (UTC)
2023-04-19 (3 years ago)
Launch vehicle
FALCON 9
Launch site
Air Force Eastern Test Range (AFETR)
Object type
Payload
Rocket body
Debris
Shape & HBR
Box + 2 Pan, 17.7 m
Radar Cross Section
33.884 m², Large (>1 m²)

Expand to show TLE details & history
Last TLE update: 1 day ago

TLE from 1 day ago
0 STARLINK-30112
1 56306U 23056W   25348.59294238  .00002039  00000-0  16597-3 0  9995
2 56306  43.0047 312.5517 0000366  82.9777 277.1107 15.02525881147283
Epoch: 2025-12-14T14:13Z
TLE epoch observation values (Epoch: 2025-12-14T14:13:50.221Z)
Latitude
-0.00002°
Longitude
15.58878°
Altitude
558.858 km
Speed
7.584 km/s
True Right ascension
20h 50m 12s
True Declination
0° 00' 00"
Sunlit
Object was in daylight at epoch
Visualization orbit readout
Latitude
Unknown
Longitude
Unknown
Altitude
Unknown
Speed
Unknown
Apparent Right ascension
Unknown
Apparent Declination
Unknown
Sunlit
N/A
Visualization observer readout
Local Sidereal Time
13:18:53
Azimuth
Unknown
Elevation
Unknown
Doppler factor
Unknown
Orbital elements
Apogee altitude
561.288 km
Perigee altitude
560.78 km
Semi-major axis
6,939.171 km
Eccentricity
0.00004
Inclination
43.0047°
RAAN
312.5517°
Arg. of periapsis
82.9777°
True anomaly
277.10654°
Mean anomaly
277.1107°
Eccentric anomaly
277.10862°
Mean motion
3.75476 °/min
Orbital period
95.88 mins
BSTAR
0.00016597
Loading maneuver chart data...
Computing Atmospheric mass density...
Loading historical data...
Loading historical data...
Loading historical data...
Loading historical data...
Loading historical data...
Loading historical data...
Loading historical data...

Documentation

Showing up to 5 results
|